Location: Camaret
(48.2753°N, 4.5961°W)
Time: 02:53:28
(UTC+00:00)

FALCON 9 DEB - Pass Details

Date: 29 October 2020
Orbit: 381 x 399 km, 53.0° (Epoch: 01 December)

Event Time Altitude Azimuth Distance (km) Brightness Sun altitude
Rises 18:12:24 0° 251° (WSW) 2,320 8.7 -11.9°
Reaches altitude 10° 18:14:29 10° 254° (WSW) 1,461 7.3 -12.3°
Maximum altitude 18:17:44 66° 337° (NNW) 445 3.2 -12.8°
Enters shadow 18:19:41 22° 56° (NE) 943 4.3 -13.1°
